Wind_Speed
43 42 42 42 41 40 39 39 40 41 42 43 43 42 42 42 42 43 43 44 44 44 44 44 42 40 37 36 32 28 25 21 18 18 17 14 13 12 8 5 7 9 9 11 13 14 16 19 22 24 24 23 22 20 19 17 14 13 12 12 13 14 14 14 14 13 12 12 13 13 14 15 15 15 15 16 16 16 16 17 18 19 20 20 22 24
44 43 42 41 41 40 40 39 39 40 41 42 42 42 43 43 43 43 44 44 44 44 44 44 43 41 39 37 33 30 29 25 20 19 17 14 14 13 10 6 4 7 9 10 12 12 14 16 19 22 23 22 21 20 19 18 15 13 12 12 13 14 14 13 13 13 13 13 13 14 15 16 16 17 17 17 17 17 18 18 19 20 20 21 23 25
44 44 43 42 41 41 40 40 39 39 40 40 40 41 42 42 43 43 43 43 43 43 43 43 43 42 41 39 35 32 31 27 23 21 18 15 16 14 11 8 4 5 7 8 9 10 12 14 17 20 21 21 20 19 18 18 17 14 12 12 12 13 13 13 13 13 13 13 14 15 16 17 17 18 18 18 19 19 19 19 20 21 21 22 23 25
44 45 43 42 42 41 40 40 40 40 40 39 39 40 40 41 42 42 42 43 43 43 43 43 43 43 42 40 37 34 31 28 25 23 19 17 18 16 13 11 6 3 5 6 7 8 10 12 15 17 19 20 18 17 17 18 17 15 13 12 12 13 13 13 13 13 13 14 15 17 17 17 17 17 18 19 20 20 20 20 20 21 22 21 23 26
43 43 43 43 43 42 41 41 41 41 41 40 39 39 39 40 41 42 43 43 43 44 44 44 44 43 43 42 40 37 34 30 27 26 23 19 20 19 15 13 9 4 4 5 4 6 8 11 13 15 17 18 17 16 16 16 17 15 13 12 12 13 14 14 14 14 13 14 16 18 18 18 17 17 19 21 21 21 21 21 22 22 21 21 24 27
41 42 43 45 44 43 42 42 42 42 41 40 40 39 39 39 40 42 43 43 44 45 45 45 45 45 44 44 42 40 36 32 30 29 26 22 21 21 17 15 12 7 5 5 3 4 6 9 11 12 15 17 17 16 15 14 15 15 13 12 12 13 14 15 15 15 14 15 16 18 19 19 19 20 21 22 22 22 23 23 24 24 23 24 26 29
39 40 42 44 44 44 43 43 42 42 41 41 41 41 40 40 40 41 42 43 44 45 46 46 46 45 45 45 44 42 37 33 31 31 29 25 23 23 20 17 15 10 7 5 3 2 4 6 9 11 13 16 16 15 14 13 14 14 13 12 12 13 14 15 16 16 16 16 17 17 17 18 19 21 22 23 23 24 24 25 26 26 27 28 30 32
37 38 40 42 43 44 43 43 42 41 41 41 42 42 41 41 41 41 41 42 43 45 46 46 46 45 46 46 44 42 38 34 33 33 31 28 25 25 23 20 17 14 10 7 4 2 1 4 7 9 11 13 15 15 14 13 13 13 13 12 11 11 12 14 16 17 18 18 18 18 17 18 20 22 22 23 25 26 26 27 28 29 30 33 35 37
36 37 38 39 41 42 43 42 42 41 40 41 42 42 42 42 41 41 41 41 42 44 46 45 45 45 45 45 44 43 40 37 35 35 34 31 28 27 26 23 20 17 13 9 6 4 1 2 5 7 9 11 14 14 13 13 12 12 12 11 10 10 11 12 14 16 18 18 18 18 19 21 22 22 22 25 27 28 29 31 33 35 36 38 40 41
35 36 37 37 39 41 42 41 41 41 41 41 42 43 43 43 43 43 43 42 42 44 45 45 45 45 45 45 45 44 42 41 39 37 36 35 32 29 28 25 22 19 16 12 8 5 3 2 2 4 6 8 11 13 13 12 11 12 12 11 10 9 11 12 13 15 16 17 17 19 21 22 23 23 24 27 29 31 33 35 36 37 38 39 40 40
33 34 35 35 37 39 40 41 41 41 41 42 42 43 44 44 43 44 44 44 43 43 44 45 45 46 46 46 46 45 45 44 42 38 37 36 33 31 29 27 25 22 19 15 11 8 5 4 2 2 4 6 8 11 12 11 10 11 11 11 10 9 10 12 14 15 15 16 17 19 21 22 22 24 26 28 30 32 33 34 34 35 36 37 37 36
32 33 33 33 35 37 39 39 39 40 40 41 41 42 44 44 44 45 45 45 44 44 44 45 46 47 48 47 47 47 47 46 44 41 39 36 33 32 31 30 27 24 21 18 14 10 7 6 4 3 3 4 5 8 10 10 9 9 10 11 11 10 9 11 13 15 16 17 18 20 22 22 22 24 27 29 30 30 30 31 32 33 35 36 36 37
31 31 31 32 33 35 36 36 37 38 39 40 41 42 43 43 44 45 45 45 45 45 45 46 46 47 48 48 48 48 48 46 45 44 43 38 35 34 34 32 30 26 24 21 17 13 10 8 7 5 4 3 3 5 7 9 8 8 9 10 10 10 10 10 12 14 17 18 19 21 21 21 22 24 26 28 28 27 28 30 31 32 32 32 34 36
29 28 29 30 32 33 34 34 35 36 38 39 40 41 42 42 44 44 45 45 46 47 46 46 46 47 48 49 49 48 48 47 46 47 45 40 37 36 36 35 32 29 26 24 20 16 13 11 10 8 6 5 3 2 5 6 7 7 7 9 10 10 10 10 11 13 16 19 20 20 20 20 22 24 25 25 25 25 27 29 29 29 29 30 31 33
28 27 28 29 30 31 32 32 33 35 36 37 39 40 40 41 43 43 44 45 46 47 47 47 47 47 48 49 49 49 49 48 48 48 46 43 40 39 38 37 34 31 29 27 23 19 16 14 12 10 9 7 6 3 2 4 5 6 6 7 9 10 10 10 11 13 15 18 19 19 19 20 21 23 24 23 22 23 24 25 25 25 26 28 30 31
27 26 27 29 29 29 30 30 31 32 34 36 37 38 39 40 41 42 42 44 45 47 48 48 48 49 49 49 49 50 50 49 49 50 48 45 44 42 41 39 35 32 30 29 26 22 19 16 13 12 11 9 8 6 3 0 3 4 4 6 8 10 10 11 11 13 14 16 17 18 19 20 21 22 22 21 20 21 22 23 22 23 25 27 28 30
26 26 28 28 27 28 29 29 29 31 32 34 34 35 37 38 39 40 41 42 44 46 47 48 50 50 50 50 50 51 51 51 51 52 51 49 47 45 44 41 36 32 32 31 28 25 22 19 16 13 12 11 10 9 7 3 0 2 3 4 6 8 10 11 12 12 13 14 15 16 18 20 21 22 21 20 19 20 21 21 22 23 24 26 27 29
26 27 28 27 27 28 29 29 29 30 30 31 33 34 35 36 36 38 39 41 44 45 46 48 50 51 52 52 51 51 52 52 51 52 52 52 51 49 48 46 40 34 34 33 31 29 26 22 19 16 14 12 11 11 10 7 4 1 1 3 4 7 9 11 11 12 13 14 15 15 17 19 20 20 20 19 18 19 20 20 21 22 23 24 25 26
27 28 28 26 27 29 29 29 30 31 30 31 32 33 33 34 35 36 37 39 42 44 46 48 50 52 53 54 53 52 52 52 52 52 52 53 53 52 51 50 45 38 36 36 34 32 29 25 21 19 17 14 13 13 12 10 7 5 2 1 3 5 8 10 11 12 13 13 14 15 16 17 18 17 17 17 17 18 19 20 21 21 22 22 23 24
28 28 28 28 28 30 30 30 31 32 32 32 31 32 33 33 34 35 36 37 39 42 44 47 50 53 55 55 54 53 52 52 53 52 53 53 52 52 52 53 50 43 38 38 37 34 31 27 24 22 19 17 15 14 14 13 11 8 6 3 2 4 6 9 11 12 13 13 14 15 16 16 16 15 15 15 16 17 18 20 21 21 21 21 21 22
30 29 30 31 31 31 31 30 31 33 33 32 31 31 32 33 34 35 36 37 37 39 42 45 49 53 55 56 55 54 53 53 53 53 54 54 53 52 52 52 51 45 39 39 39 36 32 29 26 23 21 19 18 17 17 16 14 11 9 7 5 3 5 8 10 11 13 14 14 14 15 15 15 14 14 15 16 17 18 20 21 21 20 19 18 19
32 32 32 33 34 33 32 32 33 35 35 33 32 31 32 34 35 36 36 37 37 38 40 44 47 51 55 56 56 56 55 54 54 53 54 56 56 55 52 51 51 47 42 41 41 39 36 33 29 27 25 23 21 20 18 17 17 15 12 10 8 6 5 6 9 11 12 13 14 14 15 15 15 14 14 15 16 17 18 20 21 21 19 16 14 15
35 35 35 35 35 35 35 35 36 37 37 36 34 32 32 34 35 36 37 38 38 38 39 42 45 49 52 55 56 57 57 56 55 54 55 58 60 59 56 52 51 49 46 45 45 44 42 38 34 33 31 30 27 23 21 20 19 18 16 13 11 10 8 6 7 10 12 13 13 14 15 15 15 15 15 15 16 17 18 20 21 20 17 14 12 13
39 38 38 38 38 38 37 38 39 39 39 39 37 34 33 33 35 36 37 38 39 39 40 41 44 46 49 53 57 57 58 58 57 56 57 58 61 63 61 56 52 51 50 49 48 47 44 40 38 37 37 36 32 27 24 22 21 21 20 17 15 13 11 9 8 8 10 12 13 14 14 15 15 16 16 16 17 18 18 19 19 18 16 13 12 14
39 39 39 39 39 39 39 40 40 41 40 40 38 35 33 34 35 35 36 37 38 40 41 42 43 44 47 52 56 58 58 59 60 59 59 59 61 63 64 61 57 54 53 53 51 49 45 42 41 40 39 38 35 31 28 25 23 22 23 22 19 17 15 13 11 9 9 10 12 13 14 14 15 16 16 17 17 18 18 18 18 17 15 14 14 15
36 37 38 38 38 38 39 40 40 41 42 40 38 35 34 34 35 35 34 34 35 38 41 43 44 45 47 49 54 57 58 59 61 62 61 60 61 64 65 64 61 59 57 56 55 52 48 46 43 42 41 39 36 33 32 31 28 25 25 25 24 22 19 17 15 13 11 10 10 11 12 13 14 14 15 16 17 17 17 17 17 16 15 15 15 15
33 35 36 37 37 36 35 36 38 41 41 39 37 36 34 34 34 34 34 32 32 35 39 42 45 47 47 49 52 55 58 59 62 64 63 62 62 64 66 65 63 62 61 60 58 55 51 49 46 43 42 41 38 35 34 36 34 30 27 26 26 25 23 21 19 17 15 12 11 10 10 11 12 13 14 15 16 16 17 17 17 16 16 16 16 16
33 34 34 36 37 35 31 32 36 39 38 37 37 37 35 35 34 34 34 33 33 35 37 41 45 47 48 49 51 54 57 59 61 64 65 65 63 65 68 67 65 64 64 62 61 58 55 52 49 46 43 42 40 37 37 38 36 32 29 28 27 27 26 25 22 20 18 16 15 13 11 11 11 11 11 12 13 14 15 16 17 17 18 18 18 17
37 36 36 37 39 37 34 33 34 35 36 37 37 37 36 36 34 33 34 34 34 36 37 40 43 46 48 50 51 53 56 58 61 64 66 67 66 65 68 70 68 67 66 64 62 61 58 55 53 49 45 44 42 40 38 38 37 35 33 30 29 28 27 27 26 24 22 21 19 17 16 15 14 12 11 10 11 12 13 15 17 18 19 19 19 19
41 39 40 41 42 41 39 38 37 37 37 38 38 37 37 36 35 34 34 33 34 36 36 37 39 42 46 48 51 53 55 57 60 63 66 68 68 67 68 70 72 71 69 66 64 63 61 59 57 54 50 47 45 41 39 39 39 39 37 34 31 29 28 28 28 27 26 25 23 21 20 19 18 17 16 15 14 14 14 15 16 17 18 18 19 19
45 44 44 45 45 44 42 41 40 39 39 39 39 37 36 36 35 34 34 34 35 36 36 35 36 39 42 45 49 52 55 57 59 62 65 68 70 70 68 70 73 74 73 70 67 65 64 62 61 59 55 51 48 45 43 42 41 41 40 37 34 32 30 29 28 28 28 28 27 25 24 23 22 20 19 18 17 17 17 17 17 17 17 16 17 17
48 48 47 47 46 45 44 42 40 38 38 39 38 35 35 36 35 34 34 34 35 36 35 35 36 37 38 40 45 50 54 57 59 61 64 67 70 72 70 70 74 76 76 74 71 68 66 64 63 62 59 56 53 49 47 46 43 42 42 40 37 35 33 31 29 28 29 28 28 28 28 27 26 24 22 21 20 20 20 20 20 20 20 19 18 18
50 49 47 46 45 43 42 41 38 36 35 35 34 33 33 34 34 33 33 34 35 35 35 35 36 36 37 38 42 47 52 57 59 61 63 66 69 72 73 72 73 77 78 77 74 70 68 66 65 64 62 60 57 52 49 49 46 44 43 42 40 36 34 32 31 30 29 29 29 29 29 29 28 27 26 25 24 24 24 24 24 25 24 23 22 22
50 47 43 41 41 40 39 37 35 34 33 31 29 29 31 32 32 32 32 33 34 34 33 34 35 36 37 38 40 44 49 54 58 60 62 65 68 72 74 73 73 76 79 80 77 74 71 68 67 66 64 61 58 54 52 51 49 48 47 45 42 39 36 35 34 32 31 30 30 29 29 29 29 29 28 27 27 27 27 27 27 28 27 26 26 26
47 44 39 37 38 38 36 34 32 32 32 28 25 26 28 30 31 31 31 32 33 32 32 33 34 35 36 37 38 42 47 51 55 58 61 64 67 70 73 74 73 74 78 82 81 79 75 72 69 68 66 63 60 59 57 54 53 52 51 48 44 42 40 38 37 35 34 33 31 30 30 29 29 29 29 29 29 29 29 28 28 30 29 29 29 29
42 40 39 37 36 35 33 30 29 30 30 26 23 25 29 30 29 29 29 30 31 31 31 32 33 33 33 34 37 40 45 49 52 55 59 62 65 68 72 74 75 74 77 82 84 83 80 76 71 69 68 66 64 64 63 59 56 56 55 51 48 46 43 40 38 37 36 35 33 32 31 30 30 29 29 30 31 31 30 30 31 32 32 31 32 32
39 39 39 38 36 34 31 28 28 28 27 23 23 27 29 28 28 27 26 26 28 30 30 30 31 32 32 33 34 38 42 46 48 51 56 60 64 67 70 74 76 77 78 81 84 86 85 81 75 71 69 67 66 67 67 64 61 58 58 56 53 51 48 45 43 41 40 39 36 34 33 32 31 30 30 31 32 32 32 33 35 37 36 35 34 32
39 39 38 38 37 34 30 27 27 26 23 23 26 28 28 27 27 25 23 23 26 27 27 27 28 29 30 31 32 35 39 42 45 48 53 57 62 66 69 72 76 78 79 81 83 85 86 85 81 75 71 69 67 68 68 68 65 61 59 58 56 54 51 48 46 44 43 41 38 35 33 32 32 32 33 34 35 36 36 36 38 41 39 37 35 33
38 38 37 37 37 35 29 26 26 24 23 26 28 27 27 27 24 21 21 22 23 21 20 21 22 24 26 28 29 31 35 38 41 45 50 55 59 64 68 71 75 78 80 81 82 83 85 86 84 81 76 71 68 68 69 69 68 65 61 59 57 56 54 51 49 47 45 43 39 36 34 35 36 36 35 37 40 41 40 40 43 45 43 39 37 35
35 36 37 36 36 34 29 25 25 25 26 28 28 27 27 24 20 19 20 18 15 12 12 14 16 19 21 24 25 28 31 35 38 42 46 51 56 62 66 69 73 76 79 81 82 83 83 84 84 84 82 77 72 70 69 69 69 68 66 62 60 59 57 55 52 50 47 44 41 37 36 37 40 40 39 40 42 44 43 43 44 44 44 43 42 39
33 34 35 34 34 32 27 24 26 27 28 29 28 26 25 21 18 18 16 11 7 6 7 9 11 14 17 19 21 24 28 31 34 38 42 48 53 58 63 67 71 74 78 81 82 82 82 82 82 84 85 82 78 74 71 70 69 69 68 65 63 61 59 55 53 51 49 46 43 41 39 39 41 42 41 42 44 47 48 47 46 43 42 44 44 42
32 32 32 32 32 30 26 25 27 29 30 29 27 25 22 19 19 17 13 9 7 6 6 6 7 9 11 14 17 20 23 27 30 33 38 44 49 54 60 65 69 72 76 79 82 82 82 82 82 83 85 85 83 79 75 72 71 70 69 66 63 61 59 57 55 54 52 49 46 45 44 42 41 42 41 41 47 52 52 53 54 51 49 48 48 46
30 31 32 32 31 29 27 27 29 30 30 28 26 24 22 20 19 16 12 10 9 8 6 5 3 4 6 9 12 16 19 23 27 29 33 39 45 50 56 61 66 70 73 77 81 82 82 82 82 83 85 86 85 82 79 75 73 71 70 68 65 62 60 59 58 57 54 52 50 49 48 45 44 44 44 46 53 58 56 57 59 59 57 56 53 51
30 32 32 31 30 28 28 29 30 30 29 28 27 25 23 21 19 17 13 11 9 8 6 5 3 2 2 4 6 10 14 19 23 26 30 34 40 46 52 58 63 67 72 75 79 81 83 83 82 83 84 86 86 84 80 77 74 72 71 70 67 63 60 58 58 57 56 54 53 53 54 53 52 50 47 49 54 59 60 60 60 61 61 60 58 56
30 32 31 30 29 27 27 29 30 30 31 30 28 26 24 22 20 17 15 13 10 8 7 7 5 3 3 3 4 5 8 13 19 23 27 30 35 41 47 54 60 65 70 74 77 80 82 83 83 83 84 85 86 85 82 77 74 71 69 68 66 64 62 58 55 54 54 56 57 57 57 58 57 56 54 53 55 59 61 62 62 62 63 62 61 59
30 32 31 29 28 27 28 30 31 32 31 30 27 26 24 21 19 17 15 13 11 9 9 9 8 6 6 6 6 6 6 7 11 17 23 27 30 35 42 49 55 61 67 71 75 79 82 83 83 83 83 85 86 85 83 78 73 68 66 66 66 64 64 61 55 51 51 54 58 60 61 62 62 61 58 57 58 61 63 64 65 65 63 63 63 62
32 33 32 30 28 29 30 32 32 33 32 31 29 27 24 21 19 17 15 14 12 11 11 11 10 9 9 9 9 8 7 6 6 10 16 22 27 32 37 43 50 57 63 69 73 77 80 83 84 83 83 84 84 84 83 80 75 68 64 65 66 65 64 63 58 53 50 51 54 57 60 63 65 64 61 60 62 64 64 64 66 66 65 65 65 64
32 33 32 30 30 31 32 33 34 35 35 33 30 27 23 20 19 17 16 16 15 14 14 14 13 12 12 12 11 10 9 8 7 6 9 16 23 29 34 38 44 52 59 65 71 75 78 81 84 84 83 82 82 83 82 80 78 72 65 64 65 64 63 64 62 60 58 56 57 58 59 61 64 65 65 65 66 65 62 59 61 64 66 67 68 67
34 34 32 31 31 32 33 35 36 36 35 32 28 25 23 21 19 18 18 18 16 16 15 15 14 14 14 14 14 12 11 10 9 8 9 11 16 23 30 35 40 46 53 60 67 72 76 80 82 84 84 82 81 82 81 79 79 75 67 62 62 60 60 62 64 66 68 68 67 66 64 64 66 68 70 71 69 65 62 59 59 62 65 67 68 69
35 34 32 32 33 34 35 36 36 35 34 32 29 27 25 23 21 21 21 20 19 18 17 16 16 16 16 16 16 15 14 13 12 11 11 12 13 17 24 31 36 41 47 54 62 68 74 78 81 83 85 83 81 82 81 79 80 75 66 62 62 59 58 61 64 67 72 75 75 73 71 69 69 72 74 73 69 66 66 67 70 71 71 71 70 70
36 34 33 34 34 35 35 36 35 34 34 33 31 30 27 26 25 25 24 22 22 21 20 19 19 19 19 19 18 18 17 16 15 14 14 14 14 14 17 24 32 37 41 47 55 62 69 75 79 82 85 84 82 82 82 80 81 78 70 65 65 61 60 64 67 69 71 73 75 76 75 74 74 75 76 75 73 71 72 76 79 81 81 80 78 76
Wind_Direction
229 228 228 228 229 231 231 232 232 232 232 232 231 230 230 230 229 229 228 227 226 226 227 228 229 229 230 232 233 234 231 233 244 248 245 250 264 273 281 308 335 341 348 3 15 16 14 18 21 22 24 25 27 33 38 42 49 59 67 76 85 89 89 88 86 82 80 79 79 77 74 73 73 73 73 72 71 73 76 79 85 91 94 98 106 112
230 229 229 228 228 229 230 231 232 233 233 232 231 231 230 229 229 229 229 228 228 227 227 227 228 228 229 230 231 230 227 230 240 243 239 243 256 263 268 277 314 333 342 0 13 16 16 18 22 24 24 25 26 29 34 39 42 50 60 71 81 88 90 90 89 88 86 83 80 79 79 80 80 80 82 82 80 80 83 86 92 98 101 106 113 118
231 230 229 228 228 228 229 230 231 233 234 233 232 231 231 230 230 230 230 229 229 229 229 228 228 228 229 229 229 227 226 230 237 238 232 237 249 254 258 258 272 322 331 350 4 10 17 19 22 25 25 26 26 27 30 36 38 42 52 65 78 87 92 92 91 91 89 85 82 83 86 89 91 92 91 89 86 84 87 92 99 103 106 109 116 123
231 231 230 230 229 228 229 229 230 231 233 233 232 231 231 232 231 231 230 230 230 230 230 229 229 229 229 229 227 224 225 229 235 235 227 230 243 246 248 249 249 291 314 333 353 4 15 20 23 26 26 27 28 27 28 32 37 39 46 60 74 86 93 94 93 92 90 88 88 91 95 99 101 99 95 92 90 89 90 97 103 107 109 108 112 121
231 231 231 231 230 229 229 229 229 230 231 232 232 231 230 230 231 230 230 229 229 229 229 228 228 228 229 229 227 225 225 229 232 231 224 223 237 242 240 243 244 251 287 306 334 360 14 20 24 27 27 28 29 29 28 30 36 40 45 57 72 84 92 95 94 94 93 92 96 100 103 105 103 101 99 95 93 93 95 100 105 108 110 109 111 117
232 230 230 231 231 230 229 229 228 229 229 230 231 231 230 230 231 231 230 229 229 228 228 227 226 226 227 228 228 227 227 227 227 227 222 218 231 240 236 237 242 239 251 276 303 355 14 21 24 26 28 28 30 31 30 30 36 42 47 56 71 83 91 94 95 96 97 96 101 108 109 105 102 101 99 95 93 97 100 103 106 107 108 110 114 117
233 231 231 231 231 230 230 229 229 229 229 229 230 230 230 229 230 230 230 230 229 229 228 227 226 225 226 227 228 228 225 222 221 222 220 216 226 236 234 232 239 237 233 251 267 326 17 26 25 25 28 28 29 31 32 33 36 43 49 55 68 83 92 97 99 100 100 98 100 110 112 106 104 103 98 93 95 99 103 105 106 107 108 111 115 118
234 233 231 232 232 231 230 230 230 229 230 230 230 230 230 229 230 230 230 230 230 230 229 228 227 227 226 226 227 227 223 217 216 219 219 219 223 231 232 229 233 233 227 232 243 249 20 33 30 27 27 27 28 30 33 35 37 44 51 55 63 79 94 103 106 104 103 101 101 105 108 108 108 105 98 96 98 100 103 105 106 108 110 112 114 116
234 233 232 232 232 232 231 230 230 230 230 231 231 231 231 229 229 230 230 230 230 231 230 228 228 228 228 227 227 226 222 215 215 217 219 221 223 225 228 227 227 228 224 220 226 226 196 56 40 34 29 27 27 29 33 37 39 45 53 58 61 73 92 107 114 111 105 104 103 103 106 108 109 104 101 101 102 103 105 106 108 110 111 112 113 115
233 233 232 231 232 232 231 230 230 230 231 231 231 231 231 229 229 228 228 228 229 230 230 229 228 228 228 227 227 226 222 217 216 218 220 222 222 221 223 225 223 223 221 214 214 215 192 137 66 45 35 28 27 27 31 37 42 47 55 62 68 76 90 103 116 118 111 106 106 107 108 109 107 103 103 107 108 109 109 108 108 110 112 113 114 116
235 234 232 231 232 232 231 230 229 230 231 231 231 231 231 230 229 229 228 227 227 229 230 229 228 227 226 226 226 225 222 220 218 219 220 219 219 219 221 224 223 221 219 213 209 207 194 171 142 77 50 35 27 25 29 36 44 51 57 65 74 84 96 102 109 118 119 114 112 112 112 111 108 105 108 112 114 113 112 111 110 111 113 115 117 119
236 235 233 233 233 234 232 230 229 229 231 232 232 233 232 231 230 230 229 228 227 228 228 229 228 227 226 225 224 224 223 221 218 217 217 216 216 217 219 223 224 222 219 214 207 201 194 186 176 148 94 58 34 25 27 34 43 53 62 69 79 90 103 106 107 113 118 119 118 117 115 113 111 110 113 118 118 116 114 113 112 114 116 116 117 119
236 235 235 234 235 235 234 232 230 230 231 231 232 233 233 233 232 231 230 229 228 227 228 228 229 228 227 225 224 224 223 221 218 215 215 216 217 217 217 220 222 221 218 215 208 199 194 191 186 176 148 107 62 31 25 31 40 54 67 75 85 94 106 112 111 114 116 118 121 121 119 115 114 116 119 122 121 118 117 116 114 116 120 121 119 121
236 235 235 235 236 237 236 234 233 232 232 232 232 232 233 233 233 232 231 230 229 228 228 228 229 230 228 226 224 223 223 221 218 214 213 215 216 217 217 218 221 220 217 214 209 201 196 193 189 187 174 150 126 63 25 27 37 50 69 82 92 101 109 113 115 119 120 120 121 123 122 119 119 122 124 125 124 122 122 120 116 115 120 123 124 127
233 232 233 234 235 237 237 235 235 234 234 233 233 232 232 233 233 232 232 231 229 229 228 227 228 229 229 228 226 224 222 220 218 215 213 212 212 215 217 217 219 220 216 212 210 204 200 196 192 193 186 170 156 138 55 22 36 47 66 86 99 108 116 118 119 123 126 124 123 124 124 124 125 128 129 128 125 125 127 126 120 119 123 125 125 128
230 228 230 232 234 236 237 236 236 237 237 236 235 234 233 233 233 232 232 232 231 230 228 227 227 228 229 229 227 225 222 220 217 216 214 211 210 212 216 215 215 218 217 213 211 207 203 200 196 197 195 184 171 159 154 60 33 45 61 87 104 114 123 128 126 127 130 130 127 126 126 127 130 133 133 130 128 129 131 130 124 123 127 128 127 128
230 227 228 229 232 235 237 237 237 238 239 239 237 236 235 234 233 232 232 232 231 230 229 228 227 227 228 228 228 226 224 220 218 216 214 213 212 213 215 215 213 214 216 216 213 210 207 204 199 199 202 196 185 173 169 178 203 43 60 85 108 119 127 134 137 135 134 135 135 133 132 131 133 136 136 134 132 134 135 133 129 126 128 130 129 130
230 230 230 228 229 233 237 239 239 239 240 241 241 240 238 236 235 233 232 232 231 230 229 228 228 227 227 227 227 227 225 222 219 217 216 216 216 216 217 217 215 211 212 216 216 214 212 209 202 199 204 204 198 188 179 177 192 206 78 87 111 126 131 136 142 143 140 138 138 140 140 138 137 138 140 139 137 138 139 137 135 132 131 131 132 133
231 233 235 232 231 233 235 237 240 241 241 242 244 244 242 240 238 236 234 233 232 230 229 228 228 228 227 227 226 226 226 224 220 217 216 216 217 217 217 219 218 211 208 211 215 217 216 213 208 203 202 204 205 201 190 181 184 196 196 127 117 136 142 141 145 148 149 145 142 143 146 147 145 145 146 145 144 145 146 144 142 139 137 136 137 139
232 234 237 237 237 238 238 237 239 241 240 240 242 245 247 246 243 240 238 236 234 231 229 228 228 227 227 227 227 226 225 225 222 218 216 214 214 216 217 219 220 215 208 208 212 217 218 215 213 209 205 205 207 207 200 191 187 191 199 193 156 148 154 153 151 151 154 154 151 149 150 152 153 152 152 152 151 151 153 152 150 146 143 143 143 144
235 234 236 239 240 242 243 244 245 245 243 240 240 243 246 248 248 246 243 240 237 233 230 230 229 227 226 226 227 226 225 225 223 220 217 214 212 212 214 217 219 216 210 210 211 214 217 218 218 215 212 210 212 211 207 199 196 196 196 195 191 178 166 164 161 158 157 159 160 158 157 157 157 156 155 156 157 156 158 159 157 154 150 149 149 151
238 236 237 239 241 243 244 247 249 250 249 246 243 242 245 247 248 248 247 244 241 237 233 231 230 229 227 225 225 226 225 224 223 220 218 215 212 210 209 212 216 214 209 209 210 210 212 214 215 216 217 218 219 216 211 206 202 201 198 196 198 197 184 173 170 169 166 165 165 165 164 163 162 161 159 159 161 161 163 164 163 161 160 160 162 162
241 239 238 239 241 243 244 246 249 252 253 252 248 245 245 247 248 248 248 247 244 241 237 234 232 230 228 226 224 224 224 224 222 220 218 215 213 210 207 207 212 213 210 209 210 210 209 209 209 208 210 216 218 216 215 211 205 203 201 200 200 200 198 191 180 175 173 173 172 171 169 168 166 166 165 164 166 168 170 172 172 173 176 181 183 179
244 242 240 239 240 242 244 245 248 250 253 254 252 248 246 248 249 248 248 248 247 244 240 238 235 231 229 227 224 222 222 224 223 221 218 216 213 212 210 208 210 213 213 211 211 211 210 210 209 207 207 210 212 212 213 213 208 205 204 203 202 202 202 200 192 182 178 178 179 179 177 174 171 170 171 171 172 174 177 180 183 186 190 191 187 184
246 246 245 243 241 241 243 245 248 250 251 252 252 249 248 251 253 252 251 250 249 246 243 240 237 232 230 229 225 222 220 221 223 221 219 216 214 213 213 212 210 213 214 213 212 212 209 208 211 214 214 212 209 208 211 214 213 209 207 205 204 205 206 205 201 193 185 181 181 183 185 183 179 176 175 177 179 181 183 186 189 193 194 193 190 189
248 250 250 248 245 242 242 243 246 249 250 250 250 250 250 254 257 257 256 253 251 248 243 240 237 234 230 229 227 223 220 219 221 222 220 217 214 213 213 213 211 212 214 213 212 212 209 207 210 216 220 219 213 209 209 213 215 212 208 207 205 206 208 208 206 201 197 190 184 183 185 188 189 187 184 182 182 184 186 189 191 193 194 196 197 196
248 250 251 250 248 243 241 242 244 247 248 249 250 252 253 257 260 261 259 256 252 248 244 240 236 233 231 229 227 224 221 219 219 221 220 218 216 213 212 211 209 209 213 214 213 212 210 208 210 215 220 223 220 214 211 212 213 210 207 208 207 208 208 209 210 209 205 201 196 191 185 184 189 193 194 193 191 190 191 192 194 197 198 201 202 200
248 249 251 252 252 248 244 242 243 245 248 249 251 253 255 258 262 264 262 257 250 245 242 240 237 233 231 229 227 225 222 219 218 219 220 219 217 214 212 211 208 207 211 214 214 212 209 209 209 211 216 222 224 219 214 213 213 210 208 208 209 209 209 210 212 214 214 211 208 205 202 198 195 192 193 197 199 201 201 203 204 205 206 207 207 206
249 250 252 254 255 254 250 247 246 247 249 249 250 253 257 259 262 265 264 259 253 247 241 239 238 235 232 230 228 226 223 221 219 218 219 219 217 215 213 211 208 206 209 213 214 212 209 207 208 208 210 216 222 222 217 215 215 214 213 211 210 210 211 211 212 214 217 219 218 216 216 218 217 212 205 203 203 206 208 211 213 215 216 216 216 215
250 251 252 253 255 256 254 252 250 249 249 251 252 254 258 261 263 263 262 257 253 250 246 243 241 237 234 230 228 227 225 222 220 218 218 218 218 216 214 212 209 207 208 212 214 214 211 208 207 207 207 211 217 220 219 217 216 217 217 214 211 211 212 213 213 214 216 219 222 224 225 226 228 227 225 222 219 217 216 216 217 219 221 221 223 223
252 251 252 254 255 257 256 255 253 251 251 252 254 255 258 261 262 261 258 252 249 248 248 247 245 240 236 232 230 228 226 223 220 219 218 218 218 217 215 212 210 208 208 210 213 214 214 211 208 208 208 209 212 216 219 220 219 219 219 216 213 213 214 215 216 216 218 219 221 225 228 231 233 234 235 235 234 232 231 230 229 228 227 226 227 228
252 251 251 253 254 256 258 258 257 255 254 254 256 257 259 260 259 256 252 248 247 248 247 247 246 243 239 235 232 230 228 225 222 219 218 218 218 217 216 213 211 209 208 210 212 213 214 213 210 209 209 210 211 213 218 221 220 220 221 219 216 216 216 217 218 219 221 222 223 226 230 232 235 237 238 240 242 242 241 240 240 239 236 233 233 235
251 251 251 253 256 258 259 261 261 260 258 257 258 259 257 255 252 248 246 247 248 248 247 247 247 245 241 237 233 232 230 227 223 220 218 217 217 217 216 214 212 210 209 211 212 211 212 214 212 210 210 211 212 213 216 219 218 219 220 220 219 219 219 220 222 223 225 226 226 228 231 234 237 238 239 240 240 241 241 240 241 242 241 238 236 237
250 252 252 253 257 259 260 261 262 262 260 257 255 253 248 245 242 241 242 245 248 249 250 249 247 244 241 237 234 233 231 229 225 222 219 217 217 217 217 215 214 211 209 211 213 212 211 212 213 212 211 212 213 213 214 216 216 216 217 218 219 222 223 223 224 225 227 229 230 231 232 235 238 240 242 243 243 243 243 243 243 244 245 244 241 240
249 253 254 253 253 255 257 258 258 258 256 253 247 241 235 233 234 237 240 244 247 250 251 252 250 246 242 238 235 235 233 230 227 224 220 218 218 218 218 217 215 213 211 211 213 214 212 211 212 213 212 213 214 214 214 215 217 218 218 218 219 222 223 222 222 224 228 232 233 235 236 237 239 242 244 246 247 248 249 249 249 249 249 248 246 243
247 252 255 256 256 257 257 256 252 250 249 245 235 227 225 226 230 235 240 244 249 250 250 251 252 250 246 240 236 235 235 232 228 225 222 220 218 217 218 217 215 214 212 212 214 215 214 213 212 213 214 215 216 215 216 218 219 220 221 219 218 220 220 220 222 224 228 231 234 238 241 242 243 245 247 248 250 251 253 255 255 254 253 252 250 249
244 248 252 256 259 259 257 253 246 242 239 231 219 217 222 226 230 235 240 245 250 252 252 251 251 250 248 243 238 236 235 233 230 227 224 221 219 218 217 217 216 214 213 213 214 215 216 215 214 213 214 215 216 216 217 219 220 221 222 221 220 220 220 222 224 225 226 228 231 235 240 244 248 251 253 253 253 255 256 257 258 257 255 255 255 256
242 245 249 253 256 256 253 246 240 234 223 212 210 214 221 228 232 235 239 243 248 253 256 255 253 251 248 245 240 237 236 234 231 227 225 222 220 218 217 217 216 215 214 214 215 215 216 216 216 215 214 214 216 217 218 219 220 220 221 223 223 223 224 225 225 225 226 228 229 232 235 239 244 250 256 259 259 259 258 258 258 258 255 255 257 257
238 243 246 248 251 252 247 236 229 220 207 205 210 214 222 229 233 234 236 241 247 254 258 259 256 251 247 243 240 237 236 235 232 228 225 223 220 219 217 217 217 216 215 215 215 216 216 217 217 218 217 216 215 218 219 219 220 221 222 223 225 226 228 228 227 227 229 230 231 231 231 231 233 238 246 254 257 259 258 259 260 259 256 255 257 258
237 241 243 244 246 247 240 226 215 205 200 206 212 215 222 228 228 225 230 237 242 248 255 259 258 254 248 242 238 235 234 234 233 230 227 224 222 219 218 217 217 217 216 215 216 216 216 217 217 218 218 218 216 217 219 220 222 223 223 224 225 227 230 231 232 232 232 232 231 230 230 232 233 234 237 243 248 251 253 254 255 255 253 252 254 257
237 239 241 240 239 238 230 213 201 198 201 208 213 216 220 219 211 213 219 218 213 223 244 256 259 257 252 246 240 235 233 232 233 232 229 225 223 221 219 218 217 217 217 216 216 217 217 217 216 217 218 218 218 217 218 220 222 224 225 225 226 228 230 232 233 234 234 233 232 229 228 231 233 233 234 237 242 244 245 247 248 249 250 251 251 252
236 237 236 234 231 227 218 203 196 198 203 208 212 214 211 202 199 204 200 181 181 204 229 248 261 265 262 254 246 239 234 231 232 233 231 227 224 222 220 218 218 218 217 217 217 217 217 217 217 216 217 218 219 219 219 219 221 224 225 226 227 229 230 231 233 234 234 234 233 231 229 230 232 233 233 236 241 244 245 246 247 249 251 254 253 251
231 232 229 225 222 217 207 199 197 201 204 206 207 206 201 195 197 201 193 182 187 197 206 220 248 273 276 269 258 249 240 234 232 232 232 230 227 224 221 220 219 218 218 217 217 217 217 217 217 216 217 218 219 220 220 220 222 224 225 227 228 229 231 231 232 234 235 235 235 233 231 231 232 232 231 234 241 248 249 248 247 247 249 252 254 254
223 224 222 218 216 211 203 199 200 201 202 202 202 201 198 195 198 203 204 204 204 201 207 217 221 246 292 298 281 264 251 242 237 234 232 231 229 227 223 221 220 219 218 218 217 217 217 217 217 217 217 218 219 220 221 221 223 224 226 228 228 229 230 231 232 233 235 236 236 235 233 232 231 229 229 232 239 245 248 248 247 246 246 248 251 253
215 218 218 214 212 209 203 201 200 199 199 200 199 198 197 195 198 205 210 215 217 218 228 237 240 252 283 305 308 292 270 254 245 239 236 233 231 230 227 224 221 220 219 218 217 217 217 217 218 218 218 218 219 220 220 221 222 224 225 227 227 227 228 229 230 233 234 234 235 235 233 232 231 231 232 235 240 244 247 249 249 247 246 246 248 251
209 212 214 212 209 206 201 198 197 198 201 201 197 195 196 196 200 208 214 219 224 229 237 246 249 255 268 279 291 301 298 280 259 247 242 238 235 233 231 227 224 222 221 219 218 217 217 217 218 218 219 218 219 219 220 219 220 221 223 224 224 225 227 230 231 232 233 233 233 234 233 232 232 234 236 238 242 245 247 248 248 248 247 248 248 249
207 209 211 210 206 202 198 196 197 200 204 204 199 197 198 201 206 214 220 227 233 237 244 251 253 254 259 265 274 285 296 304 290 262 249 243 238 236 233 231 228 225 223 221 219 218 217 217 218 218 219 219 219 219 219 218 217 219 222 224 225 225 228 231 230 228 228 230 231 232 232 231 231 235 238 239 240 243 245 246 247 247 248 249 249 249
207 209 210 208 205 200 197 197 199 203 207 209 206 204 205 208 213 221 228 235 241 244 248 253 256 258 259 261 265 271 281 293 301 289 267 251 244 240 236 234 231 229 226 223 221 219 218 217 218 218 219 219 219 219 219 218 216 218 221 224 225 226 229 231 230 226 226 231 233 233 232 231 230 233 237 238 238 240 243 245 246 247 247 249 249 250
208 208 208 207 205 201 198 200 203 207 211 214 214 213 214 216 220 226 233 239 244 247 250 256 261 265 266 265 265 267 272 280 289 293 287 272 257 247 241 237 234 232 230 227 223 221 219 218 218 218 219 219 219 219 219 217 216 216 217 218 220 222 224 228 230 228 229 233 236 237 236 233 231 232 236 238 238 238 240 241 242 244 246 248 249 250
209 208 206 207 207 205 203 204 207 211 214 217 219 220 221 223 224 228 233 240 246 250 255 260 265 268 270 270 269 267 267 272 277 283 287 284 273 258 247 243 239 235 233 230 227 223 220 219 218 218 219 219 219 219 219 217 215 214 213 213 213 214 215 219 222 224 227 230 232 233 234 233 231 231 234 238 238 238 239 242 245 247 249 249 249 251
210 207 206 207 209 209 209 209 210 213 216 219 222 224 226 227 228 231 235 241 247 252 257 262 267 271 272 271 270 268 266 267 270 276 281 284 283 273 257 248 244 240 236 233 230 227 223 220 219 218 219 220 219 219 219 216 214 213 211 209 209 209 211 214 217 220 223 226 228 229 229 230 231 231 232 235 238 241 244 247 250 252 252 251 251 253
Height
10889 10892 10894 10897 10899 10901 10903 10905 10907 10909 10912 10915 10918 10921 10924 10926 10928 10930 10932 10935 10937 10940 10942 10945 10948 10951 10953 10955 10957 10959 10961 10962 10963 10963 10962 10963 10963 10964 10965 10964 10964 10963 10962 10960 10958 10956 10954 10951 10949 10946 10944 10942 10940 10939 10938 10937 10936 10935 10934 10934 10933 10933 10933 10933 10933 10932 10932 10932 10931 10930 10929 10928 10928 10928 10928 10928 10927 10926 10925 10924 10924 10924 10924 10925 10925 10926
10885 10887 10890 10893 10896 10898 10900 10902 10904 10906 10908 10911 10914 10917 10920 10922 10924 10926 10928 10930 10933 10936 10939 10942 10945 10948 10950 10952 10955 10957 10958 10960 10961 10962 10962 10962 10962 10963 10964 10964 10964 10963 10962 10961 10959 10957 10956 10953 10951 10948 10946 10944 10942 10941 10940 10938 10938 10937 10936 10936 10935 10935 10934 10934 10934 10934 10934 10934 10933 10932 10931 10930 10930 10930 10930 10930 10929 10928 10927 10926 10926 10927 10927 10927 10928 10930
10880 10883 10886 10889 10892 10894 10897 10899 10902 10903 10905 10908 10911 10913 10916 10918 10920 10922 10925 10927 10930 10933 10936 10938 10941 10944 10947 10949 10952 10954 10956 10958 10959 10960 10961 10961 10961 10962 10963 10964 10964 10963 10963 10962 10961 10959 10957 10955 10953 10951 10948 10946 10944 10943 10941 10940 10939 10938 10938 10937 10937 10936 10936 10936 10936 10936 10935 10935 10935 10934 10933 10933 10933 10933 10933 10932 10931 10930 10929 10928 10929 10929 10930 10930 10931 10932
10875 10878 10882 10885 10888 10891 10893 10896 10898 10899 10901 10904 10907 10910 10913 10915 10916 10919 10922 10924 10927 10929 10932 10935 10938 10940 10943 10946 10949 10951 10954 10955 10957 10959 10960 10960 10960 10961 10962 10963 10963 10963 10963 10962 10962 10961 10959 10957 10955 10953 10951 10949 10946 10945 10943 10941 10940 10940 10939 10939 10938 10938 10937 10937 10937 10937 10937 10937 10937 10936 10936 10936 10936 10936 10935 10934 10933 10932 10931 10931 10931 10932 10932 10933 10934 10935
10871 10875 10878 10880 10883 10886 10889 10891 10893 10895 10898 10901 10903 10906 10909 10910 10912 10914 10917 10920 10922 10925 10927 10930 10933 10936 10939 10942 10945 10948 10951 10953 10954 10956 10958 10959 10959 10960 10961 10962 10962 10963 10963 10963 10962 10961 10960 10958 10956 10955 10953 10951 10949 10947 10945 10944 10942 10941 10941 10941 10940 10939 10939 10939 10939 10939 10939 10939 10939 10939 10939 10939 10938 10938 10937 10936 10935 10934 10934 10933 10933 10934 10935 10936 10936 10937
10867 10871 10873 10875 10878 10881 10884 10886 10889 10892 10894 10897 10899 10901 10904 10906 10908 10910 10913 10916 10918 10920 10922 10925 10929 10932 10935 10938 10941 10945 10948 10950 10952 10954 10956 10957 10958 10959 10960 10961 10962 10962 10962 10963 10962 10962 10961 10960 10958 10957 10956 10954 10952 10950 10948 10947 10945 10944 10943 10943 10942 10941 10941 10940 10941 10941 10941 10941 10941 10941 10941 10941 10941 10940 10939 10938 10937 10937 10936 10936 10936 10937 10938 10939 10940 10941
10863 10866 10868 10870 10873 10877 10879 10882 10885 10888 10890 10893 10895 10896 10899 10902 10904 10906 10909 10911 10913 10916 10918 10921 10925 10928 10931 10934 10937 10941 10945 10948 10949 10951 10953 10955 10957 10958 10959 10961 10961 10962 10962 10962 10962 10962 10962 10961 10960 10959 10957 10956 10954 10952 10951 10949 10948 10946 10946 10945 10945 10944 10943 10943 10943 10943 10943 10944 10943 10943 10943 10944 10944 10943 10942 10941 10940 10939 10939 10940 10940 10940 10941 10942 10943 10944
10859 10862 10864 10866 10869 10872 10875 10878 10882 10884 10887 10889 10890 10892 10895 10898 10900 10902 10905 10907 10909 10911 10914 10918 10922 10925 10928 10930 10934 10937 10941 10945 10947 10948 10951 10953 10955 10956 10957 10959 10961 10961 10962 10962 10962 10962 10962 10962 10961 10960 10959 10958 10956 10954 10953 10952 10950 10949 10948 10947 10947 10947 10946 10946 10945 10945 10946 10946 10946 10946 10946 10946 10946 10946 10946 10945 10944 10943 10943 10944 10944 10944 10945 10946 10947 10948
10855 10857 10860 10863 10865 10868 10871 10874 10878 10880 10883 10885 10886 10888 10891 10894 10896 10898 10901 10903 10905 10908 10911 10915 10919 10922 10925 10928 10931 10934 10939 10942 10944 10945 10948 10951 10953 10955 10956 10958 10959 10960 10961 10961 10962 10962 10962 10962 10961 10961 10960 10959 10958 10956 10955 10954 10952 10951 10950 10950 10950 10949 10949 10948 10948 10948 10948 10949 10949 10949 10948 10949 10949 10949 10949 10949 10948 10948 10948 10948 10948 10949 10949 10950 10951 10952
10851 10853 10856 10859 10861 10863 10866 10870 10873 10876 10878 10879 10882 10884 10885 10888 10891 10893 10895 10898 10901 10904 10907 10911 10915 10917 10921 10924 10928 10931 10935 10938 10940 10943 10946 10949 10951 10953 10954 10956 10958 10959 10960 10961 10961 10962 10962 10962 10962 10962 10961 10960 10959 10958 10957 10956 10954 10953 10952 10952 10952 10952 10952 10951 10950 10950 10950 10951 10951 10951 10951 10952 10952 10952 10953 10953 10953 10953 10953 10953 10953 10954 10954 10955 10956 10957
10847 10849 10852 10855 10857 10859 10862 10865 10869 10871 10873 10875 10877 10878 10880 10883 10886 10888 10891 10894 10897 10900 10903 10906 10910 10912 10916 10919 10923 10927 10930 10933 10937 10941 10944 10947 10950 10951 10953 10955 10956 10958 10959 10960 10961 10962 10962 10962 10963 10963 10962 10962 10961 10960 10959 10957 10956 10956 10955 10954 10954 10954 10954 10954 10953 10953 10953 10953 10954 10954 10954 10955 10955 10956 10956 10957 10957 10957 10957 10957 10958 10959 10959 10959 10960 10961
10843 10846 10849 10852 10853 10854 10857 10861 10865 10867 10869 10871 10873 10874 10876 10879 10881 10884 10887 10890 10893 10896 10899 10901 10904 10907 10911 10915 10918 10922 10925 10929 10934 10938 10941 10945 10947 10949 10951 10953 10955 10957 10959 10959 10960 10961 10962 10962 10963 10963 10963 10963 10962 10962 10961 10959 10958 10958 10957 10956 10956 10956 10957 10957 10956 10956 10956 10956 10957 10957 10958 10958 10958 10959 10960 10961 10961 10961 10961 10962 10962 10963 10963 10963 10964 10965
10840 10843 10846 10848 10849 10851 10853 10858 10861 10863 10865 10867 10869 10870 10872 10875 10877 10880 10883 10886 10889 10892 10894 10897 10900 10903 10906 10910 10914 10917 10921 10926 10930 10934 10937 10941 10944 10946 10949 10951 10953 10955 10957 10959 10960 10961 10962 10962 10963 10963 10964 10964 10963 10963 10962 10961 10960 10960 10959 10958 10958 10959 10959 10959 10959 10959 10959 10959 10959 10960 10961 10961 10962 10962 10963 10964 10964 10965 10965 10966 10966 10967 10967 10967 10967 10968
10838 10841 10843 10844 10846 10847 10850 10854 10856 10858 10860 10862 10864 10865 10868 10870 10873 10876 10879 10882 10885 10888 10891 10894 10897 10899 10902 10906 10910 10914 10918 10922 10927 10930 10934 10937 10940 10943 10946 10949 10951 10953 10955 10957 10959 10960 10961 10962 10963 10963 10964 10964 10964 10964 10964 10963 10962 10962 10961 10961 10960 10961 10961 10962 10962 10962 10962 10962 10962 10963 10963 10964 10965 10966 10966 10967 10967 10968 10968 10969 10970 10970 10970 10970 10971 10971
10835 10838 10840 10841 10843 10844 10847 10850 10852 10854 10855 10857 10859 10862 10865 10867 10868 10871 10875 10878 10881 10884 10887 10891 10893 10895 10897 10901 10906 10910 10914 10918 10923 10926 10930 10933 10937 10940 10944 10946 10949 10951 10953 10956 10957 10959 10960 10962 10962 10963 10964 10964 10965 10965 10965 10964 10964 10963 10963 10963 10962 10963 10963 10964 10964 10964 10965 10965 10965 10966 10966 10967 10967 10968 10969 10970 10970 10971 10971 10972 10972 10972 10973 10973 10973 10974
10833 10836 10836 10838 10840 10842 10844 10846 10848 10849 10851 10852 10855 10858 10861 10862 10865 10868 10871 10874 10876 10879 10883 10886 10888 10890 10893 10897 10901 10905 10909 10914 10918 10922 10926 10930 10934 10937 10940 10944 10947 10949 10951 10954 10956 10958 10959 10961 10962 10963 10964 10965 10965 10965 10966 10965 10965 10965 10964 10964 10964 10965 10965 10966 10967 10967 10967 10968 10968 10969 10969 10969 10970 10970 10971 10972 10973 10973 10974 10974 10974 10975 10975 10975 10976 10976
10830 10832 10834 10836 10838 10839 10840 10843 10845 10846 10847 10849 10852 10854 10856 10858 10861 10865 10867 10869 10871 10874 10878 10881 10883 10885 10889 10892 10896 10899 10904 10908 10913 10917 10922 10926 10930 10934 10937 10941 10945 10947 10949 10951 10954 10956 10958 10959 10961 10963 10964 10965 10965 10966 10966 10966 10966 10966 10966 10966 10966 10966 10967 10967 10968 10969 10969 10970 10971 10971 10972 10972 10972 10973 10973 10974 10975 10975 10976 10976 10976 10977 10977 10978 10978 10979
10827 10829 10831 10834 10836 10837 10838 10839 10841 10843 10844 10846 10848 10849 10852 10855 10857 10860 10863 10864 10866 10870 10873 10875 10878 10881 10884 10887 10890 10894 10898 10903 10908 10913 10917 10921 10925 10929 10932 10936 10939 10943 10945 10948 10951 10953 10955 10957 10959 10961 10963 10965 10966 10966 10966 10967 10967 10967 10967 10967 10967 10967 10968 10969 10969 10970 10971 10972 10973 10974 10974 10975 10975 10975 10975 10976 10976 10977 10978 10978 10978 10979 10979 10980 10980 10981
10825 10826 10828 10831 10833 10834 10835 10837 10838 10840 10842 10843 10844 10846 10848 10851 10853 10855 10858 10860 10862 10865 10868 10870 10872 10875 10877 10880 10885 10889 10894 10899 10904 10909 10913 10917 10920 10924 10928 10930 10933 10937 10940 10944 10947 10949 10952 10956 10958 10960 10962 10964 10965 10966 10967 10967 10967 10968 10968 10968 10968 10968 10969 10970 10970 10971 10972 10973 10974 10975 10976 10977 10977 10977 10978 10978 10978 10978 10979 10980 10980 10981 10981 10982 10982 10983
10822 10824 10826 10828 10829 10830 10832 10834 10835 10836 10838 10840 10842 10843 10845 10847 10849 10851 10853 10855 10857 10861 10863 10865 10867 10869 10871 10875 10880 10885 10890 10894 10899 10905 10909 10912 10916 10920 10924 10927 10930 10934 10937 10939 10942 10945 10949 10954 10956 10959 10961 10962 10964 10965 10967 10967 10968 10968 10968 10969 10969 10969 10969 10970 10971 10972 10973 10974 10975 10976 10977 10978 10978 10979 10979 10979 10980 10980 10980 10981 10982 10982 10983 10983 10984 10984
10819 10822 10823 10824 10825 10827 10829 10831 10831 10832 10834 10837 10840 10841 10842 10843 10844 10846 10848 10850 10853 10856 10858 10859 10861 10862 10866 10870 10875 10880 10885 10890 10895 10900 10904 10908 10912 10915 10920 10923 10927 10932 10936 10938 10940 10943 10946 10951 10954 10957 10960 10961 10962 10964 10965 10967 10967 10968 10969 10969 10969 10970 10970 10970 10971 10972 10973 10974 10975 10976 10977 10978 10979 10980 10980 10981 10981 10981 10981 10982 10982 10983 10984 10985 10985 10986
10816 10818 10820 10821 10822 10824 10826 10827 10827 10827 10829 10832 10835 10838 10839 10839 10839 10841 10843 10845 10848 10850 10852 10854 10855 10857 10861 10866 10871 10875 10879 10884 10889 10894 10899 10903 10906 10910 10914 10918 10923 10928 10933 10936 10937 10939 10941 10945 10949 10954 10957 10959 10960 10962 10964 10965 10967 10967 10968 10969 10969 10970 10970 10971 10971 10972 10973 10974 10975 10976 10978 10979 10979 10980 10981 10981 10982 10982 10982 10983 10983 10984 10985 10986 10987 10988
10811 10814 10816 10818 10819 10821 10823 10824 10824 10824 10825 10828 10830 10833 10835 10835 10835 10836 10838 10840 10842 10844 10847 10848 10849 10852 10857 10861 10865 10869 10873 10878 10883 10888 10892 10896 10900 10904 10908 10913 10917 10923 10927 10930 10931 10933 10935 10938 10941 10945 10950 10953 10956 10959 10961 10963 10965 10966 10967 10968 10969 10970 10970 10971 10971 10972 10973 10974 10975 10977 10978 10979 10979 10980 10981 10982 10982 10983 10983 10984 10984 10984 10985 10986 10987 10988
10806 10809 10811 10814 10816 10818 10819 10820 10820 10820 10822 10823 10825 10828 10830 10830 10830 10832 10834 10835 10836 10839 10841 10843 10844 10848 10851 10853 10857 10862 10867 10872 10877 10880 10884 10888 10893 10897 10903 10908 10913 10917 10921 10924 10926 10928 10932 10935 10938 10940 10943 10947 10951 10955 10957 10960 10962 10964 10965 10966 10968 10969 10969 10970 10971 10972 10973 10974 10975 10977 10978 10979 10979 10980 10981 10981 10982 10983 10983 10984 10984 10985 10986 10986 10988 10988
10801 10803 10806 10808 10811 10814 10815 10816 10816 10817 10817 10819 10821 10824 10825 10825 10826 10828 10830 10831 10832 10834 10835 10837 10839 10842 10845 10846 10851 10857 10862 10865 10869 10872 10876 10881 10886 10892 10897 10903 10909 10912 10916 10920 10922 10925 10928 10931 10934 10937 10940 10943 10947 10950 10952 10954 10957 10960 10962 10963 10965 10966 10968 10969 10970 10972 10973 10974 10975 10976 10977 10979 10979 10980 10980 10981 10982 10982 10983 10984 10984 10985 10986 10987 10987 10988
10798 10799 10800 10802 10804 10808 10810 10811 10813 10813 10812 10814 10817 10819 10821 10821 10821 10823 10824 10826 10827 10828 10829 10830 10833 10835 10838 10841 10845 10850 10855 10858 10861 10864 10870 10875 10880 10885 10890 10897 10903 10907 10910 10914 10917 10921 10924 10927 10930 10933 10936 10939 10943 10945 10946 10947 10950 10953 10957 10960 10961 10963 10965 10967 10969 10970 10972 10973 10975 10976 10977 10978 10979 10980 10980 10981 10981 10982 10983 10984 10984 10985 10986 10986 10987 10987
10794 10794 10794 10795 10797 10801 10805 10807 10809 10808 10808 10811 10813 10815 10816 10816 10816 10817 10819 10820 10821 10821 10822 10823 10825 10828 10831 10834 10838 10842 10847 10851 10854 10858 10862 10868 10873 10877 10883 10889 10896 10901 10904 10907 10911 10915 10920 10923 10926 10928 10931 10934 10938 10942 10943 10943 10944 10947 10951 10955 10957 10959 10962 10964 10966 10968 10970 10972 10974 10975 10977 10978 10978 10979 10980 10981 10981 10982 10983 10983 10984 10985 10985 10986 10986 10987
10789 10789 10790 10790 10791 10795 10800 10803 10803 10803 10805 10808 10809 10810 10811 10811 10812 10813 10813 10814 10814 10814 10815 10816 10818 10821 10825 10828 10831 10835 10839 10843 10847 10850 10855 10860 10866 10870 10876 10882 10889 10894 10898 10900 10905 10909 10914 10918 10921 10924 10927 10929 10933 10937 10940 10941 10943 10944 10946 10949 10952 10955 10958 10961 10963 10966 10969 10971 10973 10974 10976 10977 10978 10979 10980 10981 10981 10982 10982 10983 10983 10984 10984 10985 10985 10986
10785 10786 10786 10786 10786 10790 10794 10797 10799 10800 10801 10802 10804 10805 10806 10807 10808 10808 10808 10809 10809 10809 10809 10810 10812 10816 10819 10822 10825 10828 10832 10837 10840 10843 10848 10853 10858 10863 10869 10875 10882 10887 10891 10894 10899 10904 10909 10913 10916 10919 10923 10926 10928 10932 10935 10938 10940 10942 10943 10944 10947 10951 10954 10957 10959 10963 10965 10968 10971 10973 10974 10976 10977 10978 10979 10980 10981 10981 10981 10981 10982 10982 10982 10983 10983 10984
10781 10781 10781 10781 10782 10784 10788 10791 10793 10795 10796 10797 10799 10801 10802 10802 10803 10804 10803 10803 10803 10802 10804 10806 10807 10810 10812 10816 10819 10822 10825 10830 10833 10837 10841 10846 10850 10855 10861 10867 10874 10879 10884 10888 10893 10897 10902 10906 10910 10914 10918 10921 10923 10927 10930 10933 10936 10938 10940 10942 10944 10946 10950 10953 10955 10958 10961 10964 10967 10970 10972 10973 10975 10976 10977 10978 10979 10979 10979 10979 10979 10980 10980 10981 10982 10982
10774 10775 10775 10776 10777 10778 10781 10784 10786 10789 10791 10792 10793 10796 10798 10798 10798 10798 10798 10797 10797 10797 10799 10801 10802 10804 10807 10810 10813 10815 10818 10822 10826 10831 10835 10839 10843 10848 10854 10860 10866 10872 10878 10882 10886 10890 10895 10900 10904 10908 10912 10915 10918 10922 10925 10928 10931 10934 10937 10940 10942 10944 10946 10949 10952 10955 10957 10960 10964 10966 10969 10971 10973 10974 10976 10976 10977 10978 10978 10978 10978 10978 10979 10980 10980 10981
10766 10768 10769 10770 10771 10773 10775 10777 10780 10783 10785 10786 10788 10791 10793 10792 10792 10792 10792 10792 10792 10792 10794 10796 10797 10799 10802 10805 10807 10809 10810 10814 10818 10823 10828 10831 10835 10841 10847 10853 10858 10865 10871 10875 10879 10883 10889 10894 10899 10903 10907 10910 10913 10917 10920 10923 10927 10930 10934 10937 10939 10941 10943 10946 10948 10951 10953 10956 10960 10963 10965 10968 10970 10972 10974 10975 10976 10976 10977 10977 10977 10977 10977 10978 10979 10979
10759 10761 10764 10766 10767 10769 10771 10772 10775 10778 10780 10781 10783 10785 10786 10786 10786 10787 10787 10787 10788 10789 10791 10792 10793 10794 10796 10798 10800 10801 10803 10806 10810 10815 10820 10824 10828 10833 10839 10845 10851 10858 10864 10869 10874 10879 10883 10888 10893 10898 10902 10905 10909 10913 10916 10919 10922 10926 10929 10933 10937 10939 10941 10944 10946 10948 10951 10953 10956 10959 10962 10964 10967 10969 10970 10972 10973 10974 10974 10974 10974 10974 10975 10976 10976 10977
10754 10756 10759 10762 10763 10765 10766 10768 10770 10772 10773 10776 10778 10779 10780 10780 10781 10782 10783 10783 10783 10785 10787 10787 10788 10788 10790 10792 10794 10795 10796 10799 10803 10809 10813 10817 10821 10825 10832 10838 10845 10852 10858 10864 10868 10873 10878 10882 10886 10891 10896 10901 10905 10908 10911 10914 10918 10921 10924 10928 10933 10936 10938 10940 10942 10944 10948 10951 10953 10956 10958 10961 10963 10965 10967 10969 10970 10970 10971 10971 10972 10972 10972 10973 10974 10974
10750 10751 10755 10757 10759 10760 10762 10764 10766 10767 10768 10771 10773 10774 10775 10776 10777 10778 10779 10780 10780 10781 10782 10781 10782 10783 10785 10788 10789 10789 10790 10793 10797 10802 10807 10811 10815 10820 10826 10833 10840 10847 10853 10857 10861 10866 10870 10875 10880 10885 10891 10896 10900 10903 10906 10909 10913 10916 10920 10924 10928 10931 10934 10936 10938 10941 10946 10949 10951 10954 10956 10958 10960 10962 10964 10966 10967 10968 10968 10969 10969 10969 10969 10970 10970 10971
10747 10748 10750 10752 10753 10755 10757 10760 10761 10762 10764 10766 10769 10769 10770 10772 10773 10775 10776 10776 10776 10776 10777 10777 10777 10778 10780 10782 10784 10784 10785 10787 10791 10796 10801 10805 10809 10814 10819 10826 10833 10840 10845 10849 10853 10857 10862 10868 10874 10880 10886 10891 10895 10898 10901 10905 10908 10911 10915 10919 10923 10926 10930 10933 10935 10938 10943 10946 10949 10951 10953 10955 10957 10959 10961 10963 10964 10965 10966 10966 10966 10966 10966 10967 10966 10967
10744 10745 10746 10747 10748 10750 10752 10754 10756 10757 10760 10763 10765 10765 10766 10768 10770 10772 10773 10773 10772 10772 10773 10773 10774 10774 10775 10777 10778 10779 10780 10782 10786 10790 10794 10798 10802 10807 10812 10818 10824 10831 10836 10840 10844 10848 10854 10862 10869 10875 10879 10884 10889 10893 10896 10899 10903 10906 10910 10914 10917 10920 10924 10928 10931 10934 10937 10941 10944 10947 10949 10952 10955 10956 10958 10959 10960 10961 10962 10963 10962 10961 10962 10962 10963 10964
10739 10741 10743 10743 10744 10745 10748 10750 10751 10754 10757 10759 10761 10762 10763 10765 10767 10769 10770 10769 10769 10769 10769 10770 10770 10771 10771 10772 10773 10774 10775 10777 10781 10784 10787 10791 10795 10800 10805 10810 10815 10821 10827 10831 10836 10842 10848 10856 10862 10868 10873 10878 10883 10887 10891 10895 10898 10902 10905 10909 10913 10916 10920 10923 10927 10931 10933 10936 10940 10943 10946 10949 10951 10953 10954 10955 10956 10957 10958 10958 10957 10955 10957 10958 10959 10961
10736 10737 10739 10740 10740 10741 10743 10745 10748 10751 10754 10756 10757 10759 10761 10762 10764 10766 10766 10766 10766 10766 10766 10766 10766 10766 10767 10768 10769 10770 10771 10773 10775 10777 10780 10784 10789 10793 10798 10802 10807 10813 10819 10824 10829 10835 10842 10849 10855 10861 10867 10872 10877 10881 10886 10890 10894 10898 10901 10905 10909 10913 10916 10919 10923 10927 10930 10933 10936 10940 10942 10943 10944 10946 10949 10951 10952 10952 10954 10954 10951 10949 10952 10955 10955 10956
10732 10733 10735 10736 10736 10737 10739 10742 10745 10748 10750 10752 10754 10756 10758 10759 10762 10763 10763 10763 10764 10764 10764 10763 10762 10762 10762 10764 10765 10767 10768 10769 10770 10772 10775 10779 10783 10787 10792 10796 10801 10806 10812 10818 10822 10828 10835 10842 10848 10854 10860 10865 10870 10874 10880 10885 10889 10893 10896 10900 10904 10908 10910 10914 10919 10924 10927 10930 10934 10937 10939 10939 10938 10940 10943 10946 10947 10947 10948 10948 10944 10943 10947 10950 10951 10952
10728 10729 10730 10731 10732 10734 10736 10739 10742 10745 10747 10748 10750 10753 10755 10757 10759 10760 10760 10761 10762 10762 10761 10760 10760 10759 10759 10760 10762 10763 10764 10765 10766 10767 10769 10773 10777 10781 10786 10791 10795 10800 10806 10811 10816 10822 10828 10835 10841 10847 10852 10857 10862 10867 10873 10879 10883 10886 10890 10895 10899 10902 10905 10910 10916 10919 10923 10927 10930 10932 10933 10934 10935 10935 10937 10942 10944 10942 10941 10941 10939 10938 10941 10943 10945 10947
10723 10724 10726 10727 10729 10731 10734 10737 10740 10741 10743 10745 10747 10750 10752 10754 10756 10757 10758 10759 10760 10760 10759 10759 10758 10757 10757 10757 10758 10759 10760 10762 10763 10763 10765 10768 10772 10776 10780 10785 10789 10794 10799 10805 10810 10816 10822 10828 10834 10839 10844 10849 10854 10860 10866 10872 10876 10880 10885 10889 10893 10897 10901 10906 10910 10913 10917 10922 10925 10927 10927 10928 10931 10933 10934 10937 10938 10936 10934 10935 10934 10935 10936 10937 10939 10941
10719 10720 10721 10723 10725 10728 10731 10734 10736 10738 10740 10742 10745 10747 10750 10751 10753 10754 10756 10757 10757 10757 10757 10757 10757 10756 10756 10756 10756 10756 10757 10758 10759 10760 10761 10764 10767 10771 10775 10780 10784 10788 10793 10798 10803 10810 10816 10822 10827 10832 10837 10842 10847 10853 10860 10865 10870 10874 10879 10883 10887 10891 10896 10900 10904 10907 10912 10916 10918 10920 10922 10922 10924 10926 10929 10930 10930 10929 10929 10928 10928 10929 10930 10931 10933 10935
10715 10716 10717 10720 10722 10725 10728 10731 10733 10735 10737 10740 10742 10744 10746 10748 10750 10751 10752 10753 10754 10755 10755 10755 10755 10755 10755 10755 10754 10754 10754 10754 10755 10757 10758 10760 10762 10765 10769 10774 10778 10781 10786 10791 10797 10803 10809 10814 10820 10825 10830 10835 10840 10847 10853 10859 10864 10868 10872 10876 10881 10886 10890 10894 10898 10902 10906 10909 10910 10912 10915 10915 10915 10918 10921 10922 10922 10922 10922 10920 10920 10922 10923 10924 10927 10928
10712 10713 10715 10717 10720 10723 10727 10729 10731 10733 10735 10736 10739 10741 10743 10745 10746 10748 10749 10750 10751 10752 10752 10753 10753 10753 10754 10754 10753 10753 10752 10752 10753 10754 10755 10757 10759 10761 10764 10768 10771 10775 10779 10784 10790 10795 10801 10807 10812 10817 10823 10828 10834 10840 10848 10855 10859 10863 10866 10870 10875 10879 10883 10887 10892 10896 10898 10900 10901 10904 10907 10909 10909 10911 10913 10914 10913 10913 10912 10912 10913 10914 10915 10917 10919 10919
10709 10710 10712 10715 10718 10721 10724 10727 10729 10731 10732 10734 10736 10738 10740 10742 10743 10745 10746 10747 10748 10749 10750 10750 10751 10751 10752 10752 10752 10752 10751 10751 10752 10752 10753 10754 10756 10757 10759 10762 10765 10769 10772 10776 10782 10788 10793 10799 10805 10810 10815 10821 10827 10834 10842 10850 10855 10858 10861 10865 10869 10872 10876 10881 10886 10888 10890 10890 10892 10895 10899 10901 10901 10902 10904 10905 10904 10903 10904 10905 10904 10905 10907 10910 10911 10912
10706 10708 10710 10713 10716 10719 10722 10724 10727 10728 10729 10731 10734 10735 10737 10739 10740 10742 10744 10745 10746 10747 10747 10748 10749 10749 10750 10750 10750 10750 10750 10750 10750 10750 10751 10751 10752 10752 10754 10757 10760 10763 10766 10770 10775 10781 10786 10792 10797 10802 10808 10814 10821 10829 10836 10843 10850 10854 10856 10859 10862 10866 10870 10874 10878 10880 10881 10882 10883 10885 10888 10891 10892 10894 10895 10896 10895 10894 10896 10897 10897 10899 10901 10901 10902 10904
10703 10705 10707 10710 10713 10716 10719 10721 10723 10724 10725 10728 10731 10733 10735 10737 10738 10740 10741 10742 10743 10744 10744 10745 10746 10747 10748 10748 10748 10748 10748 10749 10749 10748 10748 10748 10748 10748 10750 10752 10755 10757 10760 10763 10768 10773 10779 10784 10790 10796 10801 10807 10815 10823 10828 10835 10842 10847 10848 10851 10855 10860 10863 10866 10869 10872 10873 10873 10874 10876 10879 10882 10884 10885 10886 10886 10886 10887 10888 10889 10891 10892 10893 10893 10894 10896
10699 10702 10705 10708 10711 10714 10716 10717 10719 10720 10723 10726 10729 10731 10733 10735 10736 10737 10738 10739 10740 10741 10742 10742 10743 10744 10745 10745 10746 10746 10746 10746 10746 10746 10746 10746 10745 10746 10746 10748 10750 10752 10754 10757 10761 10766 10772 10778 10784 10790 10795 10801 10808 10815 10820 10827 10834 10837 10839 10843 10848 10853 10856 10858 10861 10864 10865 10865 10866 10869 10871 10873 10875 10877 10878 10878 10879 10879 10880 10881 10883 10884 10885 10886 10887 10888
10696 10699 10703 10705 10708 10710 10713 10714 10716 10718 10721 10724 10726 10728 10730 10731 10733 10734 10735 10736 10737 10738 10739 10740 10740 10741 10742 10743 10743 10743 10744 10744 10744 10744 10744 10744 10743 10743 10743 10744 10745 10747 10749 10752 10755 10760 10765 10771 10777 10783 10789 10794 10800 10807 10813 10819 10826 10830 10832 10836 10841 10844 10846 10848 10850 10853 10854 10855 10858 10860 10862 10863 10866 10868 10869 10869 10870 10870 10871 10872 10873 10875 10876 10878 10879 10880
10693 10697 10700 10702 10704 10707 10709 10711 10713 10716 10718 10721 10723 10725 10726 10728 10729 10730 10731 10733 10733 10734 10736 10737 10737 10738 10739 10740 10740 10741 10741 10741 10741 10741 10741 10741 10741 10741 10741 10741 10741 10743 10745 10747 10750 10754 10759 10764 10770 10776 10781 10786 10793 10799 10805 10810 10816 10821 10825 10828 10832 10834 10836 10838 10839 10841 10843 10846 10849 10851 10852 10854 10856 10858 10859 10860 10861 10861 10862 10864 10865 10866 10868 10870 10871 10872